Big Rapids, MI

3:17 PM EDT on October 18, 2019 (GMT -0400)
Roben-Hood

Weather History for KRQB - August, 2019

Change the Weather History Date:

Friday, August 2, 2019

  Actual Average Record
Temperature  
Mean Temperature 66 °F -  
Max Temperature 81 °F 80 °F 96 °F (1988)
Min Temperature 51 °F 57 °F 46 °F (1976)
Cooling Degree Days 1    
Growing Degree Days 16 (Base 50)    
Moisture  
Dew Point 54 °F    
Average Humidity 66    
Maximum Humidity 96    
Minimum Humidity 32    
Precipitation  
Precipitation 0.00 in - - ()
Sea Level Pressure  
Sea Level Pressure 30.16 in    
Wind  
Wind Speed 1 mph (NW)    
Max Wind Speed 12 mph    
Max Gust Speed 16 mph    
Visibility 10 miles    
Events      
Averages and records for this station are not official NWS values.
T = Trace of Precipitation, MM = Missing Value Source: NWS Daily Summary

Daily Weather History Graph

Daily Weather History Graph

Search for Another Location

Airport or City:

Astronomy

Aug. 02, 2019 Rise Set
Actual Time 6:31 AM EDT 9:04 PM EDT
Civil Twilight 5:59 AM EDT 9:36 PM EDT
Nautical Twilight 5:18 AM EDT 10:17 PM EDT
Astronomical Twilight 4:31 AM EDT 11:03 PM EDT
Moon 8:11 AM EDT (8/2) 10:29 PM EDT (8/2)
Length of Visible Light 15h 37m
Length of Day
14h 32m
Waxing Crescent, 4% of the Moon is Illuminated
Aug 2
Waxing Crescent
Aug 7
First Quarter
Aug 15
Full
Aug 23
Last Quarter
Aug 30
New

Hourly Weather History & Observations

Time (EDT) Temp. Heat Index Dew Point Humidity Pressure Visibility Wind Dir Wind Speed Gust Speed Precip Events Conditions
12:15 AM 60.1 °F - 53.2 °F 78% 30.19 in 10.0 mi Calm Calm - N/A   Clear
12:39 AM 59.9 °F - 53.1 °F 78% 30.19 in 10.0 mi Calm Calm - N/A   Clear
12:57 AM 59.0 °F - 53.1 °F 81% 30.19 in 10.0 mi Calm Calm - N/A   Clear
1:15 AM 57.7 °F - 52.9 °F 84% 30.19 in 10.0 mi Calm Calm - N/A   Clear
1:16 AM 57.6 °F - 52.9 °F 84% 30.19 in 10.0 mi Calm Calm - N/A   Clear
1:35 AM 57.4 °F - 52.9 °F 85% 30.19 in 10.0 mi Calm Calm - N/A   Clear
1:55 AM 56.7 °F - 52.9 °F 87% 30.19 in 10.0 mi Calm Calm - N/A   Clear
2:00 AM 56.7 °F - 53.1 °F 88% 30.19 in 10.0 mi Calm Calm - N/A   Clear
2:18 AM 56.3 °F - 52.7 °F 88% 30.19 in 10.0 mi Calm Calm - N/A   Clear
2:36 AM 55.4 °F - 52.2 °F 89% 30.19 in 10.0 mi Calm Calm - N/A   Clear
2:55 AM 55.4 °F - 52.3 °F 89% 30.19 in 10.0 mi Calm Calm - N/A   Clear
2:56 AM 55.4 °F - 52.5 °F 90% 30.19 in 10.0 mi Calm Calm - N/A   Clear
3:15 AM 54.1 °F - 51.6 °F 91% 30.19 in 10.0 mi Calm Calm - N/A   Clear
3:39 AM 53.8 °F - 51.8 °F 93% 30.19 in 10.0 mi Calm Calm - N/A   Clear
3:57 AM 53.8 °F - 51.8 °F 93% 30.19 in 10.0 mi Calm Calm - N/A   Clear
4:15 AM 52.7 °F - 50.9 °F 94% 30.19 in 10.0 mi Calm Calm - N/A   Clear
4:16 AM 52.9 °F - 50.9 °F 93% 30.19 in 10.0 mi Calm Calm - N/A   Clear
4:35 AM 52.9 °F - 51.1 °F 94% 30.19 in 10.0 mi Calm Calm - N/A   Clear
4:36 AM 52.9 °F - 51.1 °F 94% 30.18 in 10.0 mi Calm Calm - N/A   Clear
4:55 AM 53.6 °F - 51.8 °F 94% 30.18 in 10.0 mi Calm Calm - N/A   Clear
5:00 AM 53.4 °F - 51.6 °F 94% 30.19 in 10.0 mi Calm Calm - N/A   Clear
5:18 AM 51.8 °F - 50.4 °F 95% 30.19 in 10.0 mi Calm Calm - N/A   Clear
5:36 AM 52.5 °F - 51.3 °F 95% 30.19 in 10.0 mi Calm Calm - N/A   Clear
5:55 AM 52.2 °F - 50.7 °F 95% 30.19 in 10.0 mi East 4.6 mph - N/A   Clear
6:15 AM 52.0 °F - 50.7 °F 95% 30.19 in 10.0 mi Calm Calm - N/A   Clear
6:16 AM 52.0 °F - 50.7 °F 95% 30.19 in 10.0 mi Calm Calm - N/A   Clear
6:38 AM 52.3 °F - 50.9 °F 95% 30.19 in 10.0 mi Calm Calm - N/A   Clear
6:56 AM 52.9 °F - 51.3 °F 94% 30.19 in 10.0 mi Calm Calm - N/A   Clear
7:15 AM 52.7 °F - 50.9 °F 94% 30.19 in 10.0 mi Calm Calm - N/A   Clear
7:16 AM 52.7 °F - 51.1 °F 94% 30.19 in 10.0 mi Calm Calm - N/A   Clear
7:35 AM 53.2 °F - 52.0 °F 95% 30.19 in 10.0 mi Calm Calm - N/A   Clear
7:40 AM 53.6 °F - 52.5 °F 96% 30.19 in 10.0 mi Calm Calm - N/A   Clear
7:58 AM 55.4 °F - 54.0 °F 95% 30.19 in 10.0 mi Calm Calm - N/A   Clear
8:16 AM 57.0 °F - 54.7 °F 92% 30.20 in 10.0 mi Calm Calm - N/A   Clear
8:35 AM 59.2 °F - 55.8 °F 88% 30.20 in 10.0 mi Calm Calm - N/A   Clear
8:36 AM 59.4 °F - 55.9 °F 88% 30.20 in 10.0 mi Calm Calm - N/A   Clear
8:55 AM 61.3 °F - 56.5 °F 84% 30.21 in 10.0 mi Calm Calm - N/A   Clear
9:19 AM 64.6 °F - 56.8 °F 76% 30.20 in 10.0 mi Calm Calm - N/A   Clear
9:37 AM 66.6 °F - 57.4 °F 72% 30.20 in 10.0 mi Calm Calm - N/A   Clear
9:55 AM 68.2 °F - 57.4 °F 68% 30.19 in 10.0 mi Calm Calm - N/A   Clear
9:56 AM 68.4 °F - 57.6 °F 68% 30.19 in 10.0 mi Calm Calm - N/A   Clear
10:15 AM 71.4 °F - 58.3 °F 63% 30.19 in 10.0 mi Calm Calm - N/A   Clear
10:35 AM 73.4 °F - 58.3 °F 59% 30.19 in 10.0 mi WNW 4.6 mph - N/A   Clear
10:39 AM 73.6 °F - 58.3 °F 59% 30.19 in 10.0 mi Calm Calm - N/A   Clear
10:56 AM 74.3 °F - 58.1 °F 57% 30.18 in 10.0 mi Calm Calm - N/A   Clear
11:15 AM 76.6 °F - 58.5 °F 53% 30.19 in 10.0 mi Calm Calm - N/A   Clear
11:16 AM 76.6 °F - 58.8 °F 54% 30.19 in 10.0 mi Calm Calm - N/A   Clear
11:35 AM 77.0 °F - 57.2 °F 50% 30.18 in 10.0 mi West 4.6 mph - N/A   Clear
11:36 AM 77.2 °F - 57.2 °F 50% 30.18 in 10.0 mi West 6.9 mph - N/A   Clear
11:59 AM 78.1 °F - 55.2 °F 45% 30.19 in 10.0 mi Calm Calm - N/A   Clear
12:17 PM 78.3 °F - 55.9 °F 46% 30.19 in 10.0 mi NNE 3.5 mph - N/A   Clear
12:35 PM 78.6 °F - 54.3 °F 43% 30.19 in 10.0 mi NNE 5.8 mph - N/A   Clear
12:55 PM 80.4 °F - 52.3 °F 38% 30.18 in 10.0 mi West 6.9 mph - N/A   Scattered Clouds
12:56 PM 80.6 °F - 52.2 °F 37% 30.18 in 10.0 mi NW 5.8 mph - N/A   Scattered Clouds
1:18 PM 79.7 °F - 53.6 °F 40% 30.18 in 10.0 mi NNE 6.9 mph - N/A   Scattered Clouds
1:36 PM 80.1 °F - 52.5 °F 38% 30.18 in 10.0 mi West 3.5 mph - N/A   Clear
1:55 PM 80.4 °F 80.1 °F 53.6 °F 39% 30.17 in 10.0 mi NNW 3.5 mph - N/A   Clear
1:56 PM 80.6 °F 80.3 °F 53.4 °F 39% 30.17 in 10.0 mi NNW 3.5 mph - N/A   Clear
2:15 PM 80.1 °F - 52.2 °F 38% 30.17 in 10.0 mi Calm Calm - N/A   Clear
2:39 PM 81.0 °F - 51.3 °F 36% 30.17 in 10.0 mi Calm Calm - N/A   Scattered Clouds
2:57 PM 81.7 °F - 51.3 °F 35% 30.15 in 10.0 mi Calm Calm - N/A   Scattered Clouds
3:15 PM 81.5 °F - 51.1 °F 35% 30.15 in 10.0 mi Calm Calm - N/A   Scattered Clouds
3:16 PM 81.3 °F - 51.3 °F 35% 30.15 in 10.0 mi Calm Calm - N/A   Scattered Clouds
3:55 PM 81.9 °F - 51.6 °F 35% 30.14 in 10.0 mi Calm Calm - N/A   Clear
4:00 PM 80.8 °F - 50.5 °F 35% 30.14 in 10.0 mi NNE 3.5 mph - N/A   Clear
4:17 PM 81.3 °F - 51.6 °F 36% 30.13 in 10.0 mi NNW 3.5 mph - N/A   Clear
4:35 PM 80.6 °F - 48.6 °F 33% 30.12 in 10.0 mi Calm Calm - N/A   Clear
4:36 PM 80.4 °F - 48.7 °F 33% 30.12 in 10.0 mi Calm Calm - N/A   Clear
4:55 PM 81.0 °F - 51.6 °F 36% 30.12 in 10.0 mi Calm Calm - N/A   Clear
5:15 PM 80.8 °F 80.3 °F 53.2 °F 38% 30.12 in 10.0 mi Calm Calm - N/A   Clear
5:20 PM 80.1 °F - 52.5 °F 38% 30.12 in 10.0 mi Calm Calm - N/A   Clear
5:38 PM 80.6 °F 80.3 °F 53.6 °F 39% 30.12 in 10.0 mi Calm Calm - N/A   Clear
5:56 PM 81.1 °F - 51.1 °F 35% 30.11 in 10.0 mi Calm Calm - N/A   Clear
6:15 PM 81.3 °F - 51.6 °F 36% 30.11 in 10.0 mi Calm Calm - N/A   Clear
6:35 PM 81.7 °F - 49.1 °F 32% 30.11 in 10.0 mi Calm Calm - N/A   Clear
6:36 PM 81.5 °F - 48.9 °F 32% 30.11 in 10.0 mi Calm Calm - N/A   Clear
6:59 PM 81.3 °F - 50.2 °F 34% 30.10 in 10.0 mi Calm Calm - N/A   Clear
7:17 PM 80.6 °F - 50.4 °F 35% 30.09 in 10.0 mi Calm Calm - N/A   Clear
7:35 PM 80.1 °F 80.0 °F 53.4 °F 40% 30.09 in 10.0 mi Calm Calm - N/A   Clear
7:36 PM 80.1 °F 80.0 °F 53.6 °F 40% 30.09 in 10.0 mi Calm Calm - N/A   Clear
7:55 PM 78.3 °F - 57.9 °F 49% 30.10 in 10.0 mi NW 4.6 mph - N/A   Clear
8:18 PM 75.7 °F - 58.6 °F 55% 30.10 in 10.0 mi NW 3.5 mph - N/A   Clear
8:37 PM 74.5 °F - 58.3 °F 57% 30.10 in 10.0 mi NW 4.6 mph - N/A   Clear
8:55 PM 72.9 °F - 59.5 °F 63% 30.11 in 10.0 mi WNW 11.5 mph - N/A   Clear
8:56 PM 72.7 °F - 59.5 °F 63% 30.11 in 10.0 mi WNW 9.2 mph - N/A   Clear
9:15 PM 71.6 °F - 57.4 °F 61% 30.11 in 10.0 mi NW 10.4 mph 16.1 mph N/A   Clear
9:35 PM 70.7 °F - 56.8 °F 61% 30.11 in 10.0 mi WNW 8.1 mph - N/A   Clear
9:58 PM 69.1 °F - 56.7 °F 65% 30.12 in 10.0 mi WNW 8.1 mph - N/A   Clear
10:16 PM 67.8 °F - 56.8 °F 68% 30.12 in 10.0 mi West 9.2 mph - N/A   Clear
10:35 PM 67.3 °F - 56.5 °F 68% 30.12 in 10.0 mi West 9.2 mph - N/A   Clear
10:36 PM 67.3 °F - 56.5 °F 68% 30.12 in 10.0 mi West 9.2 mph - N/A   Clear
10:55 PM 65.3 °F - 57.0 °F 75% 30.12 in 10.0 mi West 9.2 mph - N/A   Clear
10:56 PM 65.3 °F - 57.0 °F 75% 30.12 in 10.0 mi West 9.2 mph - N/A   Clear
11:19 PM 63.0 °F - 56.7 °F 80% 30.12 in 10.0 mi West 3.5 mph - N/A   Clear
11:37 PM 62.6 °F - 56.5 °F 80% 30.11 in 10.0 mi Calm Calm - N/A   Clear
11:55 PM 62.8 °F - 56.5 °F 80% 30.11 in 10.0 mi North 3.5 mph - N/A   Clear